Location: Grasslands National Park East Block
(49.0708°N, 106.5295°W)
Time: 15:43:44
(UTC-06:00)

Daily predictions for brighter satellites

Satellite Brightness Start Highest point End
(mag) Time Altitude Azimuth Time Altitude Azimuth Time Altitude Azimuth
Cosmos 2084 3.2 21:21:34 10° SSW 21:25:20 56° SE 21:29:07 10° NE
Sich 1 Rocket 3.7 21:20:48 10° S 21:25:23 89° W 21:30:01 10° N
Coronas F rocket 4.2 21:24:22 10° SW 21:26:31 21° WNW 21:28:40 10° NNW
Nadezhda 3 Rocket 4.1 21:20:17 10° N 21:26:42 89° E 21:33:05 10° S
TIMED 4.5 21:22:35 10° SSW 21:26:57 79° ESE 21:31:21 10° NNE
Cosmos 1975 Rocket 3.1 21:25:42 10° N 21:30:02 67° ENE 21:34:21 10° SSE
ERS-1 Rocket 3.5 21:26:29 10° S 21:31:28 63° WSW 21:36:30 10° NNW
Cosmos 1420 Rocket 4.4 21:26:53 10° S 21:31:48 43° ESE 21:36:44 10° NE
APEX 4.4 21:28:52 10° S 21:32:40 34° ESE 21:37:31 10° NE
AVUM R/B 4.5 21:29:53 10° NNW 21:33:07 33° NE 21:36:19 10° ESE
Cosmos 1140 Rocket 3.5 21:28:45 10° NNW 21:33:55 85° WSW 21:39:05 10° SSE
DNEPR-1 R/B 4.2 21:29:11 10° NW 21:34:49 69° SW 21:39:26 10° SSE
BREEZE-M TANK 4.2 21:15:54 10° WSW 21:36:59 68° S 21:41:24 10° E
Cosmos 1378 Rocket 3.9 21:34:58 10° NNW 21:39:16 66° W 21:43:33 10° S
ISS -3.1 21:36:34 10° SW 21:39:42 46° SSE 21:42:51 10° ENE
Cosmos 1606 3.8 21:36:50 10° NNW 21:40:38 47° W 21:44:24 10° SSW
Cosmos 2297 4.2 21:37:15 10° S 21:42:30 39° ESE 21:47:48 10° NE
Cosmos 1908 Rocket 3.9 21:39:39 10° SSW 21:44:03 74° W 21:48:32 10° N
Terra 3.4 21:40:30 10° ESE 21:44:07 22° ENE 21:47:44 10° N
CZ-4B R/B 4.3 21:40:11 10° NE 21:44:32 30° E 21:48:45 10° SSE
Intercosmos 25 3.4 21:43:40 10° SSE 21:46:47 39° E 21:49:49 10° NNE
Cosmos 1862 3.7 21:45:30 10° SSW 21:49:34 72° W 21:53:40 10° N
Cosmos 1238 Rocket 3.3 21:47:29 10° NNW 21:50:41 52° W 21:54:24 10° S
EO 1 Delta rocket 4.3 21:44:33 10° N 21:50:55 89° E 21:55:59 10° SSW
MetOp-B 4.2 21:46:43 10° SSE 21:52:05 84° ENE 21:57:28 10° NNW
Cosmos 1452 Rocket 3.8 21:46:54 10° SSW 21:52:10 75° WNW 21:57:29 10° NNE
Cosmos 1184 Rocket 2.9 21:49:38 10° SSW 21:52:59 85° WNW 21:56:22 10° N
deb Chang Zheng 4 3.7 21:50:50 10° NNE 21:55:17 86° WNW 21:59:44 10° SSW
Nimbus 7 Rocket 4.4 21:49:29 10° NNE 21:55:27 78° ESE 22:01:27 10° SSW
H-2A R/B 3.0 21:51:51 11° SE 21:56:21 34° ENE 22:01:02 10° N
SPOT 5 3.4 21:54:27 10° S 21:59:47 73° WSW 22:05:10 10° NNW
Cosmos 2341 Rocket 4.1 21:54:30 10° S 22:00:49 83° W 22:07:06 10° N
Cosmos 1242 Rocket 3.0 21:57:51 10° NNW 22:01:29 61° W 22:05:08 10° S
USA 245 3.4 22:03:11 13° SSE 22:06:25 80° ENE 22:11:02 10° NNW
SL-8 Rocket 4.0 22:01:02 10° S 22:07:15 70° E 22:13:26 10° NNE
Gbstr 26 Del rocket 3.3 22:05:05 10° WNW 22:10:34 86° SSW 22:14:15 15° ESE
YAOGAN 6 2.8 22:07:53 10° S 22:11:18 67° WSW 22:14:51 10° NNW
Lacrosse 5 3.4 22:10:52 15° SE 22:11:20 16° ESE 22:14:18 10° E
SPOT 1/Viking Rocket 3.6 22:06:51 11° SSE 22:11:52 87° ENE 22:17:08 10° NNW
H-2A R/B 3.4 22:08:41 10° SSW 22:12:36 35° W 22:16:29 10° NNW
ARGOS 3.1 22:09:19 12° SSE 22:14:16 82° ENE 22:19:39 10° NNW
Cosmos 1408 4.0 22:10:55 10° SSW 22:14:22 40° WNW 22:17:50 10° N
CZ-4C R/B 3.9 22:14:35 18° SE 22:17:18 46° ENE 22:21:22 10° N
Cosmos 2151 Rocket 3.7 22:14:02 10° S 22:18:24 60° E 22:22:54 10° NNE
BREEZE-M DEB (TANK) 4.3 22:13:28 10° WNW 22:25:13 39° SW 22:28:16 17° SSE
BREEZE-M DEB (TANK) 3.5 22:23:45 10° W 22:26:55 89° N 22:36:35 10° E
Cosmos 1300 Rocket 4.4 22:26:15 20° SE 22:28:33 33° E 22:32:34 10° NNE
ASTEX 1 4.4 22:24:19 10° NNE 22:28:39 29° E 22:31:04 20° SE
USA 229 DEB 4.1 22:25:11 10° NW 22:32:09 61° WSW 22:37:41 17° SSE
USA 229 4.1 22:25:17 10° NW 22:32:15 61° SW 22:37:47 17° SSE
Cosmos 1825 4.3 22:28:59 10° SW 22:32:18 27° WNW 22:35:37 10° NNW
Okean 1 Rocket 3.9 22:33:26 22° SE 22:35:34 34° E 22:39:37 10° NNE
Meteor 1-20 Rocket 4.3 22:32:20 15° S 22:36:46 56° E 22:42:10 10° NNE
Cosmos 864 Rocket 4.4 22:30:39 10° S 22:36:46 79° E 22:42:58 10° NNE
Cosmos 1833 Rocket 3.1 22:33:15 10° NW 22:38:46 59° WSW 22:42:58 18° S
Timation 1 Rocket 4.5 22:33:09 10° S 22:38:57 54° ESE 22:44:48 10° NE
SL-8 R/B 3.6 22:39:26 10° W 22:44:16 83° S 22:48:18 15° E
CZ-4 R/B 3.7 22:41:57 10° NNE 22:46:40 80° ESE 22:50:35 15° SSW
Okean 1 3.3 22:44:06 10° N 22:48:12 83° E 22:50:21 27° SSE
Okean 1-7 Rocket 3.7 22:43:54 10° N 22:48:22 60° ENE 22:50:37 27° SSE
Cosmos 2366 rocket 4.1 22:42:38 10° S 22:48:57 82° W 22:55:21 10° N
Cosmos 2278 Rocket 3.5 22:43:36 10° WSW 22:48:59 43° NW 22:54:25 10° NNE
Cosmos 1331 Rocket 4.1 22:45:45 17° S 22:49:39 56° ESE 22:54:43 10° NNE
NOSS 3-1 (A) 4.1 22:43:06 10° NW 22:50:28 73° NE 22:56:27 20° SE
Meteor 1-25 Rocket 4.3 22:49:12 12° S 22:54:45 89° E 23:00:36 10° NNE
Cosmos 1110 Rocket 3.9 22:53:35 12° SSW 22:58:21 75° ESE 23:03:34 10° NNE
DMSP B5D2-2 4.2 22:53:22 10° NNE 22:58:32 57° E 23:01:31 25° S
Cosmos 1812 3.1 22:56:36 10° NNW 23:00:26 60° W 23:02:27 25° SSW
Cosmos 1602 4.4 23:02:48 33° ESE 23:03:38 37° E 23:07:16 10° NNE
Cosmos 2082 Rocket 3.5 22:59:31 10° NW 23:04:29 31° WSW 23:08:39 13° SSW
Landsat 7 4.3 23:02:46 21° S 23:05:47 57° W 23:10:30 10° NNW
NOSS 8 (H) 4.5 23:06:50 19° SSW 23:09:12 72° SE 23:13:15 10° NE
ATLAS 2AS CENTAUR R/B 3.7 23:03:26 10° NW 23:11:24 51° NE 23:18:13 14° ESE
CARTOSAT-1 3.8 23:09:54 28° S 23:12:03 63° WSW 23:16:22 10° NNW
Genesis I 3.7 23:12:04 39° SE 23:12:22 40° ESE 23:16:09 10° NE
ISS -2.8 23:12:53 10° W 23:16:07 59° N 23:19:18 10° ENE
Meteor 2-4 Rocket 3.9 23:11:22 10° N 23:16:45 55° ENE 23:19:17 30° SE
Cosmos 1000 Rocket 4.5 23:12:28 10° N 23:18:45 88° E 23:22:21 28° S
NOSS 3-1 (C) 4.0 23:12:08 10° NW 23:19:32 74° SW 23:24:23 27° SSE
Terra 2.2 23:19:00 26° S 23:21:30 57° W 23:26:12 10° NNW
Cosmos 1486 Rocket 4.3 23:17:08 10° NNW 23:22:24 60° WSW 23:25:00 29° S
Cosmos 1354 Rocket 4.0 23:17:48 10° NNW 23:23:07 81° ENE 23:25:26 34° SSE
Cosmos 1356 3.4 23:25:49 56° SE 23:26:15 63° E 23:29:46 10° NNE
Cosmos 2084 Rocket 3.2 23:23:10 10° NW 23:27:04 75° NE 23:28:13 44° ESE
USA 234 3.6 23:21:29 10° ENE 23:27:37 41° SE 23:31:10 23° S
Meteor 1-13 Rocket 4.5 23:22:40 10° NNW 23:28:36 71° W 23:31:53 28° S
Spot 2 3.9 23:26:17 10° NNE 23:30:38 72° ESE 23:31:54 43° S
Cosmos 1315 Rocket 3.5 23:30:57 36° ESE 23:31:11 36° E 23:34:49 10° NNE
BREEZE-M DEB 4.2 23:30:20 10° W 23:33:11 61° WNW 23:33:11 61° WNW
Lacrosse 5 rocket 1.0 23:33:05 53° S 23:33:41 63° SE 23:37:23 10° ENE
Cosmos 1892 Rocket 3.7 23:30:51 10° N 23:35:12 61° ENE 23:36:22 44° SE
H-2A R/B 3.0 23:32:29 21° SSW 23:35:41 40° W 23:40:39 10° NNW
Spot 4 4.4 23:37:44 29° SSW 23:39:56 51° W 23:44:40 10° NNW
Okean 2 3.6 23:38:53 10° N 23:43:03 60° ENE 23:43:53 48° SE
Cosmos 1633 2.5 23:44:00 64° SE 23:44:20 70° E 23:48:03 10° NNE
Cosmos 1346 Rocket 3.8 23:41:34 10° N 23:45:06 31° ENE 23:45:42 30° E
Meteor 1-11 Rocket 3.8 23:44:05 28° SSW 23:47:17 84° W 23:53:03 10° N
Cosmos 44 Rocket 4.2 23:44:02 10° NNW 23:49:02 46° NE 23:51:42 24° ESE
Cosmos 1025 Rocket 3.3 23:46:44 10° NNW 23:51:05 62° W 23:52:22 42° SSW
Cosmos 1302 Rocket 4.1 23:49:53 24° SSW 23:53:09 75° WNW 23:58:28 10° NNE
Lacrosse 5 1.7 23:49:52 19° SW 23:53:32 70° SE 23:58:36 10° ENE
Cosmos 1602 Rocket 4.4 23:50:22 10° N 23:54:32 38° ENE 23:55:32 33° ESE
CZ-2C R/B 4.5 23:52:01 10° NE 23:55:04 15° E 23:55:54 15° E
